Regional Weather Roundup
Issued by NWS

Home | Current Version | Previous Version | Graphics & Text | Print | Product List | Glossary On
Versions: 1 2 3 4 5 6 7 8 9 10 11 12 13 14 15 16 17 18 19 20 21 22 23 24 25 26 27 28 29 30 31 32 33 34 35 36 37 38 39 40 41 42 43 44 45 46 47 48 49 50
000
ASUS43 KIND 300109
RWRIN

WEATHER ROUNDUP FOR INDIANA
NATIONAL WEATHER SERVICE INDIANAPOLIS IN
900 PM EDT WED OCT 29 2014

NOTE: "FAIR" INDICATES FEW OR NO CLOUDS BELOW 12,000 FEET WITH NO
SIGNIFICANT WEATHER AND/OR OBSTRUCTIONS TO VISIBILITY.

* - STATION DOES NOT REPORT WEATHER SUCH AS PRECIPITATION OR FOG.

+ - STATION NOT QUALITY CONTROLLED BY THE NATIONAL WEATHER SERVICE.
    USE DATA WITH CAUTION...ESPECIALLY DEWPOINT AND RELATIVE
    HUMIDITY OBSERVATIONS.

INZ001>003-010>013-019-020-300200-
NORTHWEST INDIANA

CITY           SKY/WX    TMP DP  RH WIND       PRES   REMARKS
KNOX *+        CLOUDY    44  33  65 W5        30.13S
LA PORTE +     CLOUDY    45  37  72 SW3       30.13S
MICHIGAN CITY+ CLOUDY    46  32  57 N5        30.13S
MONTICELLO +   CLOUDY    44  34  67 W3        30.15S
RENSSELAER +   CLOUDY    45  36  70 SW3       30.15S
VALPARAISO     CLOUDY    44  33  65 W6        30.14S

$$

LMZ046-743>745-300200-
SOUTHERN LAKE MICHIGAN

STATION/POSITION TIME  TEMP WIND        PRES
                       AIR  DIR/SP/G
                 (UTC) (F)  (DEG/KT/KT) (MB)
MICHIGAN CITY    0100   48  310/  9/ 11   N/A

$$

INZ004-005-014>016-021>024-300200-
NORTH CENTRAL INDIANA

CITY           SKY/WX    TMP DP  RH WIND       PRES   REMARKS
ELKHART        CLOUDY    43  37  81 W3        30.13R
GOSHEN         CLOUDY    43  38  82 W6        30.12S
LOGANSPORT +   CLOUDY    43  32  65 W5        30.15S
PERU/GRISSOM   CLOUDY    43  39  84 W6        30.14R
ROCHESTER +    CLOUDY    45  36  70 W5        30.14R
SOUTH BEND     CLOUDY    45  35  68 W3        30.13S
WARSAW +       CLOUDY    43  34  70 W6        30.12S

$$

INZ006>009-017-018-025>027-300200-
NORTHEAST INDIANA

CITY           SKY/WX    TMP DP  RH WIND       PRES   REMARKS
ANGOLA *+      CLOUDY    43  37  81 W3        30.11R
AUBURN +       CLOUDY    41  37  87 W3        30.12S
FORT WAYNE     CLOUDY    44  35  70 W6        30.13S
HUNTINGTON +   CLOUDY   N/A N/A N/A W3        30.13S

$$

INZ028-029-035-036-043>045-051>053-300200-
WEST CENTRAL INDIANA

CITY           SKY/WX    TMP DP  RH WIND       PRES   REMARKS
GREENCASTLE +  CLOUDY    45  34  65 N5        30.16S
LAFAYETTE      CLOUDY    44  33  65 W3        30.16S
TERRE HAUTE    CLOUDY    47  36  65 N7        30.17R

$$

INZ030>032-037>040-046>048-054>057-064-065-300200-
CENTRAL INDIANA

CITY           SKY/WX    TMP DP  RH WIND       PRES   REMARKS
CP ATTERBURY + CLOUDY    46  34  61 NW8       30.15S
FRANKFORT +    CLOUDY    44  36  73 CALM      30.16S
INDIANAPOLIS   CLOUDY    45  32  60 NW12      30.15R
-EAGLE CREEK   CLOUDY    45  33  63 NW9       30.15R
KOKOMO *+      CLOUDY    45  34  65 W6        30.15S
MARION +       CLOUDY    43  34  69 W7        30.14S
MT COMFORT *+  CLOUDY    45  25  45 NW9       30.15R
SHELBYVILLE    CLOUDY    48  35  60 NW8       30.14R
ZIONSVILLE +   CLOUDY    45  33  63 W5        30.15S

$$

INZ033-034-041-042-049-050-058-059-300200-
EAST CENTRAL INDIANA

CITY           SKY/WX    TMP DP  RH WIND       PRES   REMARKS
MUNCIE         CLOUDY    45  36  70 NW6       30.13S

$$

INZ060-061-067>069-081>083-085>088-300200-
SOUTHWEST INDIANA

CITY           SKY/WX    TMP DP  RH WIND       PRES   REMARKS
EVANSVILLE     CLEAR     50  37  61 N3        30.16R
HUNTINGBURG *+ CLEAR     48  34  57 N5        30.15S
WASHINGTON +   MOCLDY    47  37  70 NW5       30.15R

$$

INZ062-063-066-070>080-084-089>092-300200-
SOUTH CENTRAL AND SOUTHEAST INDIANA

CITY           SKY/WX    TMP DP  RH WIND       PRES   REMARKS
BLOOMINGTON    CLOUDY    48  35  60 VRB5      30.14S
SEYMOUR +      MOCLDY    50  36  57 N7        30.14R

$$




USA.gov is the U.S. government's official web portal to all federal, state and local government web resources and services.